"Sample Date","Sample Time","Sample Value","Units","Flow Rate","Number Channels","Micron Size 0","Counts/Channel 0","Micron Size 1","Counts/Channel 1","Micron Size 2","Counts/Channel 2","Micron Size 3","Counts/Channel 3","Micron Size 4","Counts/Channel 4","Micron Size 5","Counts/Channel 5","Micron Size 6","Counts/Channel 6","Micron Size 7","Counts/Channel 7","Micron Size 8","Counts/Channel 8","Micron Size 9","Counts/Channel 9","Micron Size 10","Counts/Channel 10","Micron Size 11","Counts/Channel 11","Micron Size 12","Counts/Channel 12","Micron Size 13","Counts/Channel 13","Micron Size 14","Counts/Channel 14","Micron Size 15","Counts/Channel 15","Micron Size 16","Counts/Channel 16","Micron Size 17","Counts/Channel 17","Micron Size 18","Counts/Channel 18","Micron Size 19","Counts/Channel 19","Micron Size 20","Counts/Channel 20","Micron Size 21","Counts/Channel 21","Micron Size 22","Counts/Channel 22","Micron Size 23","Counts/Channel 23","Micron Size 24","Counts/Channel 24","Micron Size 25","Counts/Channel 25","Micron Size 26","Counts/Channel 26","Micron Size 27","Counts/Channel 27","Micron Size 28","Counts/Channel 28","Micron Size 29","Counts/Channel 29","Micron Size 30","Counts/Channel 30","Micron Size 31","Counts/Channel 31"
"05/12/08","03:00:04",18195.000,"cc",28318.773,6,0.100,15544.000,0.200,2508.000,0.300,132.000,0.500,11.000,1.000,0,5.000,0
"05/12/08","03:00:10",14766.000,"cc",28265.703,6,0.100,12555.000,0.200,2091.000,0.300,113.000,0.500,7.000,1.000,0,5.000,0
"05/12/08","03:00:16",22464.000,"cc",28340.953,6,0.100,19246.000,0.200,3058.000,0.300,156.000,0.500,4.000,1.000,0,5.000,0
"05/12/08","03:00:22",26263.000,"cc",28315.377,6,0.100,22475.000,0.200,3580.000,0.300,198.000,0.500,10.000,1.000,0,5.000,0
"05/12/08","03:00:28",16285.000,"cc",28327.086,6,0.100,14037.000,0.200,2133.000,0.300,107.000,0.500,7.000,1.000,1.000,5.000,0
"05/12/08","03:00:34",15286.000,"cc",28295.303,6,0.100,13121.000,0.200,2042.000,0.300,115.000,0.500,8.000,1.000,0,5.000,0
"05/12/08","03:00:40",16712.000,"cc",28287.920,6,0.100,14261.000,0.200,2327.000,0.300,118.000,0.500,5.000,1.000,1.000,5.000,0
"05/12/08","03:00:46",13565.000,"cc",28327.563,6,0.100,11609.000,0.200,1850.000,0.300,97.000,0.500,9.000,1.000,0,5.000,0
"05/12/08","03:00:52",15001.000,"cc",28316.221,6,0.100,12870.000,0.200,2005.000,0.300,116.000,0.500,10.000,1.000,0,5.000,0
"05/12/08","03:00:58",19286.000,"cc",28291.445,6,0.100,16557.000,0.200,2569.000,0.300,150.000,0.500,10.000,1.000,0,5.000,0
"05/12/08","03:01:04",16256.000,"cc",28290.975,6,0.100,13891.000,0.200,2231.000,0.300,130.000,0.500,4.000,1.000,0,5.000,0
"05/12/08","03:01:10",30218.000,"cc",28330.818,6,0.100,25930.000,0.200,4064.000,0.300,209.000,0.500,15.000,1.000,0,5.000,0
"05/12/08","03:01:16",21697.000,"cc",28328.428,6,0.100,18665.000,0.200,2877.000,0.300,143.000,0.500,12.000,1.000,0,5.000,0
"05/12/08","03:01:22",16837.000,"cc",28307.848,6,0.100,14424.000,0.200,2281.000,0.300,126.000,0.500,6.000,1.000,0,5.000,0
"05/12/08","03:01:28",19362.000,"cc",28402.242,6,0.100,16575.000,0.200,2665.000,0.300,117.000,0.500,5.000,1.000,0,5.000,0
"05/12/08","03:01:34",16459.000,"cc",28318.758,6,0.100,14112.000,0.200,2200.000,0.300,139.000,0.500,8.000,1.000,0,5.000,0
"05/12/08","03:01:40",13973.000,"cc",28288.180,6,0.100,11958.000,0.200,1909.000,0.300,94.000,0.500,12.000,1.000,0,5.000,0
"05/12/08","03:01:46",11104.000,"cc",28346.674,6,0.100,9423.000,0.200,1569.000,0.300,102.000,0.500,10.000,1.000,0,5.000,0
"05/12/08","03:01:52",13233.000,"cc",28359.315,6,0.100,11267.000,0.200,1845.000,0.300,109.000,0.500,11.000,1.000,1.000,5.000,0
"05/12/08","03:01:58",14816.000,"cc",28265.875,6,0.100,12718.000,0.200,1978.000,0.300,111.000,0.500,9.000,1.000,0,5.000,0
"05/12/08","03:02:04",12514.000,"cc",28313.648,6,0.100,10782.000,0.200,1631.000,0.300,92.000,0.500,9.000,1.000,0,5.000,0
"05/12/08","03:02:10",14727.000,"cc",28307.096,6,0.100,12511.000,0.200,2069.000,0.300,140.000,0.500,7.000,1.000,0,5.000,0
"05/12/08","03:02:16",23740.000,"cc",28338.648,6,0.100,20412.000,0.200,3144.000,0.300,180.000,0.500,4.000,1.000,0,5.000,0
"05/12/08","03:02:22",31396.000,"cc",28300.186,6,0.100,26960.000,0.200,4205.000,0.300,218.000,0.500,13.000,1.000,0,5.000,0
"05/12/08","03:02:28",21592.000,"cc",28336.680,6,0.100,18675.000,0.200,2773.000,0.300,134.000,0.500,10.000,1.000,0,5.000,0
"05/12/08","03:02:34",23788.000,"cc",28316.289,6,0.100,20354.000,0.200,3239.000,0.300,179.000,0.500,16.000,1.000,0,5.000,0
"05/12/08","03:02:40",26169.000,"cc",28291.451,6,0.100,22534.000,0.200,3423.000,0.300,196.000,0.500,16.000,1.000,0,5.000,0
"05/12/08","03:02:46",24594.000,"cc",28313.139,6,0.100,21176.000,0.200,3221.000,0.300,193.000,0.500,3.000,1.000,1.000,5.000,0
"05/12/08","03:02:52",17276.000,"cc",28342.006,6,0.100,14827.000,0.200,2320.000,0.300,117.000,0.500,10.000,1.000,2.000,5.000,0
"05/12/08","03:02:58",18036.000,"cc",28383.740,6,0.100,15525.000,0.200,2361.000,0.300,145.000,0.500,5.000,1.000,0,5.000,0
"05/12/08","03:03:04",20161.000,"cc",28293.387,6,0.100,17339.000,0.200,2680.000,0.300,132.000,0.500,10.000,1.000,0,5.000,0
"05/12/08","03:03:10",29988.000,"cc",28263.016,6,0.100,25776.000,0.200,4011.000,0.300,194.000,0.500,7.000,1.000,0,5.000,0
"05/12/08","03:03:16",23039.000,"cc",28322.119,6,0.100,19871.000,0.200,2981.000,0.300,171.000,0.500,16.000,1.000,0,5.000,0
"05/12/08","03:03:22",20169.000,"cc",28305.357,6,0.100,17343.000,0.200,2664.000,0.300,151.000,0.500,11.000,1.000,0,5.000,0
"05/12/08","03:03:28",29318.000,"cc",28313.301,6,0.100,25296.000,0.200,3792.000,0.300,216.000,0.500,14.000,1.000,0,5.000,0
"05/12/08","03:03:34",28199.000,"cc",28311.736,6,0.100,24279.000,0.200,3706.000,0.300,200.000,0.500,14.000,1.000,0,5.000,0
"05/12/08","03:03:40",35502.000,"cc",28341.234,6,0.100,30557.000,0.200,4678.000,0.300,259.000,0.500,8.000,1.000,0,5.000,0
"05/12/08","03:03:46",19038.000,"cc",28325.947,6,0.100,16338.000,0.200,2551.000,0.300,143.000,0.500,6.000,1.000,0,5.000,0
"05/12/08","03:03:52",18194.000,"cc",28371.172,6,0.100,15586.000,0.200,2471.000,0.300,127.000,0.500,10.000,1.000,0,5.000,0
"05/12/08","03:03:58",16529.000,"cc",28315.447,6,0.100,14184.000,0.200,2209.000,0.300,129.000,0.500,7.000,1.000,0,5.000,0
"05/12/08","03:04:04",24199.000,"cc",28344.277,6,0.100,20780.000,0.200,3232.000,0.300,171.000,0.500,16.000,1.000,0,5.000,0
"05/12/08","03:04:10",20283.000,"cc",28281.065,6,0.100,17432.000,0.200,2705.000,0.300,136.000,0.500,10.000,1.000,0,5.000,0
"05/12/08","03:04:16",14564.000,"cc",28300.492,6,0.100,12504.000,0.200,1946.000,0.300,103.000,0.500,11.000,1.000,0,5.000,0
"05/12/08","03:04:22",13119.000,"cc",28309.975,6,0.100,11208.000,0.200,1791.000,0.300,105.000,0.500,15.000,1.000,0,5.000,0
"05/12/08","03:04:28",10040.000,"cc",28319.840,6,0.100,8645.000,0.200,1316.000,0.300,67.000,0.500,10.000,1.000,2.000,5.000,0
"05/12/08","03:04:34",27351.000,"cc",28321.537,6,0.100,23634.000,0.200,3509.000,0.300,192.000,0.500,15.000,1.000,1.000,5.000,0
"05/12/08","03:04:40",27867.000,"cc",28346.959,6,0.100,23918.000,0.200,3761.000,0.300,178.000,0.500,10.000,1.000,0,5.000,0
"05/12/08","03:04:46",25055.000,"cc",28305.330,6,0.100,21574.000,0.200,3299.000,0.300,170.000,0.500,12.000,1.000,0,5.000,0
"05/12/08","03:04:52",13077.000,"cc",28329.947,6,0.100,11254.000,0.200,1723.000,0.300,90.000,0.500,10.000,1.000,0,5.000,0
"05/12/08","03:04:58",17684.000,"cc",28288.607,6,0.100,15197.000,0.200,2349.000,0.300,125.000,0.500,12.000,1.000,1.000,5.000,0
"05/12/08","03:05:04",14681.000,"cc",28292.791,6,0.100,12594.000,0.200,1960.000,0.300,116.000,0.500,9.000,1.000,2.000,5.000,0
"05/12/08","03:05:10",15390.000,"cc",28312.391,6,0.100,13204.000,0.200,2064.000,0.300,116.000,0.500,5.000,1.000,1.000,5.000,0
"05/12/08","03:05:16",29871.000,"cc",28347.166,6,0.100,25823.000,0.200,3873.000,0.300,168.000,0.500,7.000,1.000,0,5.000,0
"05/12/08","03:05:22",45793.000,"cc",28296.123,6,0.100,39602.000,0.200,5919.000,0.300,260.000,0.500,10.000,1.000,2.000,5.000,0
"05/12/08","03:05:28",23359.000,"cc",28258.969,6,0.100,20173.000,0.200,3022.000,0.300,152.000,0.500,12.000,1.000,0,5.000,0
"05/12/08","03:05:34",19632.000,"cc",28370.643,6,0.100,16915.000,0.200,2556.000,0.300,152.000,0.500,9.000,1.000,0,5.000,0
"05/12/08","03:05:40",15025.000,"cc",28310.059,6,0.100,12949.000,0.200,1946.000,0.300,117.000,0.500,13.000,1.000,0,5.000,0
"05/12/08","03:05:46",11793.000,"cc",28333.779,6,0.100,10139.000,0.200,1530.000,0.300,116.000,0.500,8.000,1.000,0,5.000,0
"05/12/08","03:05:52",10333.000,"cc",28295.400,6,0.100,8821.000,0.200,1397.000,0.300,99.000,0.500,16.000,1.000,0,5.000,0
"05/12/08","03:05:58",17635.000,"cc",28313.482,6,0.100,15214.000,0.200,2289.000,0.300,122.000,0.500,10.000,1.000,0,5.000,0
"05/12/08","03:06:04",22023.000,"cc",28358.766,6,0.100,19068.000,0.200,2831.000,0.300,113.000,0.500,11.000,1.000,0,5.000,0
"05/12/08","03:06:10",21976.000,"cc",28265.262,6,0.100,19049.000,0.200,2776.000,0.300,141.000,0.500,10.000,1.000,0,5.000,0
"05/12/08","03:06:16",24621.000,"cc",28348.631,6,0.100,21349.000,0.200,3135.000,0.300,126.000,0.500,11.000,1.000,0,5.000,0
"05/12/08","03:06:22",29469.000,"cc",28273.680,6,0.100,25516.000,0.200,3769.000,0.300,178.000,0.500,6.000,1.000,0,5.000,0
"05/12/08","03:06:28",17481.000,"cc",28328.818,6,0.100,15138.000,0.200,2230.000,0.300,105.000,0.500,8.000,1.000,0,5.000,0
"05/12/08","03:06:34",16879.000,"cc",28270.537,6,0.100,14664.000,0.200,2090.000,0.300,114.000,0.500,10.000,1.000,1.000,5.000,0
"05/12/08","03:06:40",14749.000,"cc",28327.846,6,0.100,12671.000,0.200,1971.000,0.300,100.000,0.500,7.000,1.000,0,5.000,0
"05/12/08","03:06:46",24777.000,"cc",28288.328,6,0.100,21266.000,0.200,3320.000,0.300,181.000,0.500,10.000,1.000,0,5.000,0
"05/12/08","03:06:52",35035.000,"cc",28316.229,6,0.100,30269.000,0.200,4544.000,0.300,216.000,0.500,6.000,1.000,0,5.000,0
"05/12/08","03:06:58",32525.000,"cc",28338.168,6,0.100,28076.000,0.200,4265.000,0.300,165.000,0.500,18.000,1.000,1.000,5.000,0
"05/12/08","03:07:04",20693.000,"cc",28387.254,6,0.100,17862.000,0.200,2690.000,0.300,131.000,0.500,10.000,1.000,0,5.000,0
"05/12/08","03:07:10",16374.000,"cc",28320.721,6,0.100,13990.000,0.200,2252.000,0.300,125.000,0.500,7.000,1.000,0,5.000,0
"05/12/08","03:07:16",25546.000,"cc",28272.777,6,0.100,22035.000,0.200,3325.000,0.300,177.000,0.500,9.000,1.000,0,5.000,0
"05/12/08","03:07:22",18509.000,"cc",28310.856,6,0.100,15899.000,0.200,2485.000,0.300,111.000,0.500,14.000,1.000,0,5.000,0
"05/12/08","03:07:28",17202.000,"cc",28397.647,6,0.100,14745.000,0.200,2331.000,0.300,116.000,0.500,10.000,1.000,0,5.000,0
"05/12/08","03:07:34",17570.000,"cc",28314.119,6,0.100,15012.000,0.200,2402.000,0.300,143.000,0.500,13.000,1.000,0,5.000,0
"05/12/08","03:07:40",10499.000,"cc",28276.121,6,0.100,8818.000,0.200,1558.000,0.300,107.000,0.500,16.000,1.000,0,5.000,0
"05/12/08","03:07:46",10103.000,"cc",28378.383,6,0.100,8574.000,0.200,1432.000,0.300,91.000,0.500,5.000,1.000,1.000,5.000,0
"05/12/08","03:07:52",10114.000,"cc",28245.531,6,0.100,8547.000,0.200,1481.000,0.300,74.000,0.500,11.000,1.000,1.000,5.000,0
"05/12/08","03:07:58",11866.000,"cc",28356.020,6,0.100,10021.000,0.200,1726.000,0.300,105.000,0.500,12.000,1.000,2.000,5.000,0
"05/12/08","03:08:04",24986.000,"cc",28343.012,6,0.100,21406.000,0.200,3379.000,0.300,189.000,0.500,12.000,1.000,0,5.000,0
"05/12/08","03:08:10",25859.000,"cc",28255.287,6,0.100,22212.000,0.200,3456.000,0.300,180.000,0.500,9.000,1.000,2.000,5.000,0
"05/12/08","03:08:16",18383.000,"cc",28366.168,6,0.100,15741.000,0.200,2489.000,0.300,146.000,0.500,7.000,1.000,0,5.000,0
"05/12/08","03:08:22",24004.000,"cc",28359.705,6,0.100,20484.000,0.200,3332.000,0.300,177.000,0.500,11.000,1.000,0,5.000,0
"05/12/08","03:08:28",19306.000,"cc",28285.272,6,0.100,16500.000,0.200,2644.000,0.300,152.000,0.500,10.000,1.000,0,5.000,0
"05/12/08","03:08:34",17744.000,"cc",28305.232,6,0.100,15163.000,0.200,2437.000,0.300,141.000,0.500,3.000,1.000,0,5.000,0
"05/12/08","03:08:40",25534.000,"cc",28351.914,6,0.100,21803.000,0.200,3521.000,0.300,202.000,0.500,8.000,1.000,0,5.000,0
"05/12/08","03:08:46",30116.000,"cc",28368.910,6,0.100,25571.000,0.200,4277.000,0.300,256.000,0.500,12.000,1.000,0,5.000,0
"05/12/08","03:08:52",28712.000,"cc",28243.453,6,0.100,24404.000,0.200,4055.000,0.300,243.000,0.500,10.000,1.000,0,5.000,0
"05/12/08","03:08:58",20413.000,"cc",28282.666,6,0.100,17402.000,0.200,2832.000,0.300,166.000,0.500,10.000,1.000,3.000,5.000,0
"05/12/08","03:09:04",25745.000,"cc",28398.838,6,0.100,21948.000,0.200,3605.000,0.300,187.000,0.500,5.000,1.000,0,5.000,0
"05/12/08","03:09:10",21712.000,"cc",28285.727,6,0.100,18400.000,0.200,3100.000,0.300,199.000,0.500,13.000,1.000,0,5.000,0
"05/12/08","03:09:16",18636.000,"cc",28320.690,6,0.100,15815.000,0.200,2624.000,0.300,188.000,0.500,9.000,1.000,0,5.000,0
"05/12/08","03:09:22",33165.000,"cc",28331.387,6,0.100,28238.000,0.200,4667.000,0.300,247.000,0.500,12.000,1.000,1.000,5.000,0
"05/12/08","03:09:28",25301.000,"cc",28327.881,6,0.100,21519.000,0.200,3544.000,0.300,220.000,0.500,16.000,1.000,2.000,5.000,0
"05/12/08","03:09:34",23347.000,"cc",28341.830,6,0.100,19766.000,0.200,3359.000,0.300,212.000,0.500,10.000,1.000,0,5.000,0
"05/12/08","03:09:40",33172.000,"cc",28326.881,6,0.100,28149.000,0.200,4714.000,0.300,298.000,0.500,11.000,1.000,0,5.000,0
"05/12/08","03:09:46",25256.000,"cc",28259.734,6,0.100,21251.000,0.200,3769.000,0.300,228.000,0.500,8.000,1.000,0,5.000,0
"05/12/08","03:09:52",17967.000,"cc",28347.940,6,0.100,15103.000,0.200,2711.000,0.300,147.000,0.500,6.000,1.000,0,5.000,0
"05/12/08","03:09:58",15674.000,"cc",28301.029,6,0.100,13205.000,0.200,2309.000,0.300,147.000,0.500,11.000,1.000,2.000,5.000,0
"05/12/08","03:10:04",20995.000,"cc",28305.418,6,0.100,17708.000,0.200,3066.000,0.300,204.000,0.500,15.000,1.000,2.000,5.000,0
"05/12/08","03:10:10",21769.000,"cc",28377.445,6,0.100,18474.000,0.200,3068.000,0.300,220.000,0.500,6.000,1.000,1.000,5.000,0
"05/12/08","03:10:16",19602.000,"cc",28293.016,6,0.100,16563.000,0.200,2858.000,0.300,176.000,0.500,4.000,1.000,1.000,5.000,0
"05/12/08","03:10:22",17754.000,"cc",28298.432,6,0.100,14926.000,0.200,2647.000,0.300,175.000,0.500,6.000,1.000,0,5.000,0
"05/12/08","03:10:28",10751.000,"cc",28331.479,6,0.100,9000.000,0.200,1623.000,0.300,116.000,0.500,12.000,1.000,0,5.000,0
"05/12/08","03:10:34",11330.000,"cc",28296.684,6,0.100,9518.000,0.200,1671.000,0.300,133.000,0.500,8.000,1.000,0,5.000,0
"05/12/08","03:10:40",14532.000,"cc",28326.533,6,0.100,12256.000,0.200,2109.000,0.300,161.000,0.500,6.000,1.000,0,5.000,0
"05/12/08","03:10:46",14898.000,"cc",28306.756,6,0.100,12507.000,0.200,2229.000,0.300,150.000,0.500,12.000,1.000,0,5.000,0
"05/12/08","03:10:52",21158.000,"cc",28298.760,6,0.100,17879.000,0.200,3056.000,0.300,215.000,0.500,8.000,1.000,0,5.000,0
"05/12/08","03:10:58",37332.000,"cc",28312.498,6,0.100,31550.000,0.200,5418.000,0.300,353.000,0.500,10.000,1.000,1.000,5.000,0
"05/12/08","03:11:04",35138.000,"cc",28313.969,6,0.100,29726.000,0.200,5063.000,0.300,343.000,0.500,6.000,1.000,0,5.000,0
"05/12/08","03:11:10",16488.000,"cc",28320.768,6,0.100,13901.000,0.200,2377.000,0.300,208.000,0.500,2.000,1.000,0,5.000,0
"05/12/08","03:11:16",14991.000,"cc",28357.400,6,0.100,12646.000,0.200,2184.000,0.300,149.000,0.500,12.000,1.000,0,5.000,0
"05/12/08","03:11:22",21399.000,"cc",28298.826,6,0.100,17954.000,0.200,3191.000,0.300,246.000,0.500,8.000,1.000,0,5.000,0
"05/12/08","03:11:28",17440.000,"cc",28341.090,6,0.100,14661.000,0.200,2593.000,0.300,175.000,0.500,11.000,1.000,0,5.000,0
"05/12/08","03:11:34",18857.000,"cc",28355.027,6,0.100,15754.000,0.200,2872.000,0.300,224.000,0.500,6.000,1.000,1.000,5.000,0
"05/12/08","03:11:40",21858.000,"cc",28317.090,6,0.100,18434.000,0.200,3198.000,0.300,223.000,0.500,3.000,1.000,0,5.000,0
"05/12/08","03:11:46",33499.000,"cc",28318.145,6,0.100,28282.000,0.200,4852.000,0.300,352.000,0.500,12.000,1.000,1.000,5.000,0
"05/12/08","03:11:52",39138.000,"cc",28238.873,6,0.100,32748.000,0.200,5939.000,0.300,426.000,0.500,23.000,1.000,2.000,5.000,0
"05/12/08","03:11:58",25779.000,"cc",28323.598,6,0.100,21854.000,0.200,3662.000,0.300,256.000,0.500,6.000,1.000,1.000,5.000,0
"05/12/08","03:12:04",17839.000,"cc",28316.436,6,0.100,15083.000,0.200,2578.000,0.300,163.000,0.500,14.000,1.000,1.000,5.000,0
"05/12/08","03:12:10",17524.000,"cc",28335.623,6,0.100,14695.000,0.200,2644.000,0.300,173.000,0.500,11.000,1.000,1.000,5.000,0
"05/12/08","03:12:16",26041.000,"cc",28363.299,6,0.100,21991.000,0.200,3792.000,0.300,247.000,0.500,10.000,1.000,1.000,5.000,0
"05/12/08","03:12:22",28527.000,"cc",28375.791,6,0.100,24082.000,0.200,4138.000,0.300,300.000,0.500,7.000,1.000,0,5.000,0
"05/12/08","03:12:28",36073.000,"cc",28273.201,6,0.100,30474.000,0.200,5237.000,0.300,350.000,0.500,11.000,1.000,1.000,5.000,0
"05/12/08","03:12:34",26594.000,"cc",28298.443,6,0.100,22427.000,0.200,3878.000,0.300,282.000,0.500,7.000,1.000,0,5.000,0
"05/12/08","03:12:40",20180.000,"cc",28272.662,6,0.100,16983.000,0.200,2969.000,0.300,216.000,0.500,12.000,1.000,0,5.000,0
"05/12/08","03:12:46",14894.000,"cc",28289.027,6,0.100,12577.000,0.200,2173.000,0.300,133.000,0.500,11.000,1.000,0,5.000,0
"05/12/08","03:12:52",13871.000,"cc",28347.328,6,0.100,11601.000,0.200,2118.000,0.300,142.000,0.500,9.000,1.000,1.000,5.000,0
"05/12/08","03:12:58",16137.000,"cc",28318.867,6,0.100,13494.000,0.200,2454.000,0.300,180.000,0.500,8.000,1.000,1.000,5.000,0
"05/12/08","03:13:04",20721.000,"cc",28312.662,6,0.100,17405.000,0.200,3090.000,0.300,219.000,0.500,7.000,1.000,0,5.000,0
"05/12/08","03:13:10",25570.000,"cc",28335.371,6,0.100,21498.000,0.200,3805.000,0.300,255.000,0.500,11.000,1.000,1.000,5.000,0
"05/12/08","03:13:16",25456.000,"cc",28316.512,6,0.100,21512.000,0.200,3648.000,0.300,290.000,0.500,6.000,1.000,0,5.000,0
"05/12/08","03:13:22",41158.000,"cc",28309.459,6,0.100,34589.000,0.200,6119.000,0.300,438.000,0.500,11.000,1.000,1.000,5.000,0
"05/12/08","03:13:28",35185.000,"cc",28329.051,6,0.100,29616.000,0.200,5166.000,0.300,383.000,0.500,19.000,1.000,1.000,5.000,0
"05/12/08","03:13:34",21229.000,"cc",28267.147,6,0.100,17833.000,0.200,3154.000,0.300,232.000,0.500,9.000,1.000,1.000,5.000,0
"05/12/08","03:13:40",15908.000,"cc",28305.244,6,0.100,13299.000,0.200,2408.000,0.300,190.000,0.500,10.000,1.000,1.000,5.000,0
"05/12/08","03:13:46",24351.000,"cc",28335.283,6,0.100,20443.000,0.200,3622.000,0.300,276.000,0.500,10.000,1.000,0,5.000,0
"05/12/08","03:13:52",17967.000,"cc",28291.902,6,0.100,15010.000,0.200,2736.000,0.300,208.000,0.500,12.000,1.000,1.000,5.000,0
"05/12/08","03:13:58",15736.000,"cc",28289.121,6,0.100,13160.000,0.200,2371.000,0.300,196.000,0.500,9.000,1.000,0,5.000,0
"05/12/08","03:14:04",13089.000,"cc",28337.684,6,0.100,11048.000,0.200,1907.000,0.300,129.000,0.500,5.000,1.000,0,5.000,0
"05/12/08","03:14:10",8921.000,"cc",28353.180,6,0.100,7431.000,0.200,1395.000,0.300,90.000,0.500,4.000,1.000,1.000,5.000,0
"05/12/08","03:14:16",9596.000,"cc",28329.111,6,0.100,8026.000,0.200,1442.000,0.300,116.000,0.500,11.000,1.000,1.000,5.000,0
"05/12/08","03:14:22",17548.000,"cc",28304.518,6,0.100,14696.000,0.200,2675.000,0.300,173.000,0.500,4.000,1.000,0,5.000,0
"05/12/08","03:14:28",20486.000,"cc",28329.326,6,0.100,17148.000,0.200,3078.000,0.300,252.000,0.500,8.000,1.000,0,5.000,0
"05/12/08","03:14:34",16108.000,"cc",28246.940,6,0.100,13514.000,0.200,2395.000,0.300,192.000,0.500,7.000,1.000,0,5.000,0
"05/12/08","03:14:40",12962.000,"cc",28348.359,6,0.100,10772.000,0.200,2030.000,0.300,153.000,0.500,6.000,1.000,1.000,5.000,0
"05/12/08","03:14:46",10900.000,"cc",28340.141,6,0.100,9123.000,0.200,1644.000,0.300,127.000,0.500,6.000,1.000,0,5.000,0
"05/12/08","03:14:52",15505.000,"cc",28332.213,6,0.100,13014.000,0.200,2298.000,0.300,187.000,0.500,6.000,1.000,0,5.000,0
"05/12/08","03:14:58",20087.000,"cc",28305.918,6,0.100,16853.000,0.200,2969.000,0.300,252.000,0.500,13.000,1.000,0,5.000,0
"05/12/08","03:15:04",32813.000,"cc",28279.713,6,0.100,27529.000,0.200,4890.000,0.300,383.000,0.500,10.000,1.000,1.000,5.000,0
"05/12/08","03:15:10",18626.000,"cc",28329.096,6,0.100,15647.000,0.200,2751.000,0.300,222.000,0.500,5.000,1.000,1.000,5.000,0
"05/12/08","03:15:16",17673.000,"cc",28352.779,6,0.100,14818.000,0.200,2657.000,0.300,188.000,0.500,10.000,1.000,0,5.000,0
"05/12/08","03:15:22",17780.000,"cc",28310.693,6,0.100,14996.000,0.200,2608.000,0.300,168.000,0.500,8.000,1.000,0,5.000,0
"05/12/08","03:15:28",15245.000,"cc",28292.084,6,0.100,12806.000,0.200,2269.000,0.300,162.000,0.500,8.000,1.000,0,5.000,0
"05/12/08","03:15:34",16514.000,"cc",28349.453,6,0.100,13873.000,0.200,2476.000,0.300,160.000,0.500,5.000,1.000,0,5.000,0
"05/12/08","03:15:40",13418.000,"cc",28277.147,6,0.100,11248.000,0.200,2025.000,0.300,133.000,0.500,11.000,1.000,1.000,5.000,0
"05/12/08","03:15:46",13746.000,"cc",28300.746,6,0.100,11504.000,0.200,2070.000,0.300,165.000,0.500,7.000,1.000,0,5.000,0
"05/12/08","03:15:52",20454.000,"cc",28325.643,6,0.100,17319.000,0.200,2941.000,0.300,186.000,0.500,8.000,1.000,0,5.000,0
"05/12/08","03:15:58",16921.000,"cc",28351.168,6,0.100,14191.000,0.200,2548.000,0.300,177.000,0.500,5.000,1.000,0,5.000,0
"05/12/08","03:16:04",26463.000,"cc",28292.076,6,0.100,22338.000,0.200,3880.000,0.300,239.000,0.500,6.000,1.000,0,5.000,0
"05/12/08","03:16:10",32155.000,"cc",28324.897,6,0.100,27187.000,0.200,4633.000,0.300,318.000,0.500,17.000,1.000,0,5.000,0
"05/12/08","03:16:16",29036.000,"cc",28319.783,6,0.100,24627.000,0.200,4138.000,0.300,262.000,0.500,7.000,1.000,2.000,5.000,0
"05/12/08","03:16:22",24582.000,"cc",28303.729,6,0.100,20630.000,0.200,3706.000,0.300,239.000,0.500,7.000,1.000,0,5.000,0
"05/12/08","03:16:28",28438.000,"cc",28302.428,6,0.100,23932.000,0.200,4242.000,0.300,258.000,0.500,6.000,1.000,0,5.000,0
"05/12/08","03:16:34",30290.000,"cc",28278.383,6,0.100,25456.000,0.200,4526.000,0.300,299.000,0.500,8.000,1.000,1.000,5.000,0
"05/12/08","03:16:40",22628.000,"cc",28334.098,6,0.100,19087.000,0.200,3309.000,0.300,223.000,0.500,9.000,1.000,0,5.000,0
"05/12/08","03:16:46",23092.000,"cc",28396.609,6,0.100,19575.000,0.200,3300.000,0.300,207.000,0.500,10.000,1.000,0,5.000,0
"05/12/08","03:16:52",18741.000,"cc",28327.545,6,0.100,15776.000,0.200,2784.000,0.300,172.000,0.500,9.000,1.000,0,5.000,0
"05/12/08","03:16:58",15346.000,"cc",28306.248,6,0.100,12894.000,0.200,2284.000,0.300,158.000,0.500,10.000,1.000,0,5.000,0
"05/12/08","03:17:04",24962.000,"cc",28318.719,6,0.100,21038.000,0.200,3638.000,0.300,270.000,0.500,14.000,1.000,2.000,5.000,0
"05/12/08","03:17:10",22309.000,"cc",28294.629,6,0.100,18858.000,0.200,3192.000,0.300,249.000,0.500,10.000,1.000,0,5.000,0
"05/12/08","03:17:16",25884.000,"cc",28311.197,6,0.100,21888.000,0.200,3756.000,0.300,232.000,0.500,8.000,1.000,0,5.000,0
"05/12/08","03:17:22",18843.000,"cc",28266.859,6,0.100,15923.000,0.200,2708.000,0.300,202.000,0.500,10.000,1.000,0,5.000,0
"05/12/08","03:17:28",21543.000,"cc",28317.133,6,0.100,18313.000,0.200,3021.000,0.300,204.000,0.500,5.000,1.000,0,5.000,0
"05/12/08","03:17:34",34361.000,"cc",28319.322,6,0.100,29247.000,0.200,4830.000,0.300,278.000,0.500,6.000,1.000,0,5.000,0
"05/12/08","03:17:40",23813.000,"cc",28366.709,6,0.100,20147.000,0.200,3445.000,0.300,211.000,0.500,10.000,1.000,0,5.000,0
"05/12/08","03:17:46",20378.000,"cc",28291.510,6,0.100,17280.000,0.200,2897.000,0.300,190.000,0.500,10.000,1.000,1.000,5.000,0
"05/12/08","03:17:52",21900.000,"cc",28296.510,6,0.100,18619.000,0.200,3068.000,0.300,202.000,0.500,11.000,1.000,0,5.000,0
"05/12/08","03:17:58",21033.000,"cc",28311.990,6,0.100,17797.000,0.200,3054.000,0.300,173.000,0.500,9.000,1.000,0,5.000,0
"05/12/08","03:18:04",27079.000,"cc",28322.703,6,0.100,23006.000,0.200,3845.000,0.300,222.000,0.500,6.000,1.000,0,5.000,0
"05/12/08","03:18:10",19150.000,"cc",28316.820,6,0.100,16278.000,0.200,2685.000,0.300,171.000,0.500,14.000,1.000,2.000,5.000,0